EW5854 Weather Reports


time (UTC)temp
F
wind
direction
speed
knots
gust
knots
rain 1hr
in
rain 24hr
in
rain mn
in
humidity
%
barometer
mb
20260504231551 51 341 0.0 0.0 0.00 0.00 0.00 92 1006.3
20260504230041 52 342 0.0 0.0 0.00 0.00 0.00 91 1006.1
20260504224541 53 342 0.0 0.0 0.00 0.00 0.00 89 1006.0
20260504223030 54 342 0.0 0.0 0.00 0.00 0.00 87 1006.0
20260504221529 55 342 0.0 0.0 0.00 0.00 0.00 85 1005.9
20260504220029 55 342 0.0 0.0 0.00 0.00 0.00 87 1005.9
20260504214535 56 340 0.0 0.0 0.00 0.00 0.00 83 1006.0
20260504213030 57 340 0.0 0.0 0.00 0.00 0.00 84 1006.1
20260504211528 58 341 0.0 0.0 0.00 0.00 0.00 82 1006.1
20260504210027 58 341 0.0 0.0 0.00 0.00 0.00 81 1006.0
20260504204554 59 341 0.0 0.0 0.00 0.00 0.00 76 1005.8
20260504203015 61 345 0.0 0.0 0.00 0.00 0.00 72 1005.9
20260504201514 61 341 0.0 0.0 0.00 0.00 0.00 76 1005.9
20260504200014 59 345 0.0 0.0 0.00 0.00 0.00 78 1005.9
20260504194511 57 342 0.0 0.0 0.00 0.00 0.00 79 1005.9
20260504193017 56 344 0.0 0.0 0.00 0.00 0.00 88 1005.9
20260504191508 55 345 0.0 0.0 0.00 0.00 0.00 97 1006.1
20260504190009 54 342 0.0 0.0 0.00 0.00 0.00 97 1006.2
20260504184506 54 347 0.0 0.0 0.00 0.00 0.00 98 1006.4
20260504183059 54 347 0.0 0.0 0.00 0.00 0.00 99 1006.4
20260504181553 52 353 0.0 0.0 0.00 0.00 0.00 99 1006.5
20260504180053 52 353 0.0 0.0 0.00 0.00 0.00 99 1006.5
20260504174553 52 355 0.0 0.0 0.00 0.00 0.00 99 1006.7
20260504173052 51 1 0.0 0.0 0.00 0.00 0.00 99 1006.8
20260504171553 52 360 0.0 0.0 0.00 0.00 0.00 99 1006.9
20260504081541 31 340 0.0 0.0 0.00 0.00 0.00 99 1008.0
20260504044545 34 340 0.0 0.0 0.00 0.00 0.00 98 1007.7
20260504043044 34 340 0.0 0.0 0.00 0.00 0.00 98 1007.7
20260504041541 34 340 0.0 0.0 0.00 0.00 0.00 97 1007.7
20260504040041 34 340 0.0 0.0 0.00 0.00 0.00 97 1007.7
20260504034541 35 340 0.0 0.0 0.00 0.00 0.00 97 1007.5
20260504033035 35 340 0.0 0.0 0.00 0.00 0.00 96 1007.5
20260504031534 35 340 0.0 0.0 0.00 0.00 0.00 95 1007.5
20260504030030 36 340 0.0 0.0 0.00 0.00 0.00 94 1007.3
20260504024519 36 340 0.0 0.0 0.00 0.00 0.00 94 1007.1
20260504023017 37 340 0.0 0.0 0.00 0.00 0.00 93 1007.2
20260504021515 37 340 0.0 0.0 0.00 0.00 0.00 92 1007.2
20260504020018 38 340 0.0 0.0 0.00 0.00 0.00 91 1007.1
20260504014511 39 340 0.0 0.0 0.00 0.00 0.00 91 1007.0
20260504013010 40 340 0.0 0.0 0.00 0.00 0.00 89 1006.9
20260504011505 41 340 0.0 0.0 0.00 0.00 0.00 88 1006.8
20260504010104 42 342 0.0 0.0 0.00 0.00 0.00 87 1006.5
20260504004551 42 342 0.0 0.0 0.00 0.00 0.00 88 1006.3
20260504003058 43 342 0.0 0.0 0.00 0.00 0.00 87 1006.1
20260504001554 43 342 0.0 0.0 0.00 0.00 0.00 85 1005.9
20260504000050 43 342 0.0 0.0 0.00 0.00 0.00 87 1005.7
20260503234551 44 342 0.0 0.0 0.00 0.00 0.00 85 1005.5
20260503233049 46 342 0.0 0.0 0.00 0.00 0.00 84 1005.2